Vorticity
8 8 8 8 9 8 5 5 14 22 11 9 16 3 1 3 5 2 10 12 12 2 2 7 2 2 4 5 5 6 4 3 3 3 3 3 2 2 2 2 3 3 3 3 4 5 5 6 6
8 8 8 11 11 9 7 4 9 6 8 11 10 -6 2 9 12 7 12 17 11 3 2 4 6 5 1 2 3 6 4 4 4 3 4 2 2 2 2 2 2 2 2 2 2 3 4 4 4
8 10 9 6 4 7 3 19 6 7 7 7 5 -4 1 8 7 11 16 11 12 4 2 3 6 4 5 4 3 2 5 4 5 4 4 3 3 2 3 4 4 4 4 3 2 2 1 2 2
9 10 9 18 3 2 7 21 4 8 4 4 4 1 5 -2 11 9 14 11 9 6 5 4 5 4 4 5 6 4 2 3 5 4 4 4 3 3 3 3 4 4 4 5 6 5 5 4 2
10 11 2 6 0 10 2 16 3 8 1 1 5 -12 4 -3 8 -1 12 12 9 9 6 4 4 4 5 6 5 5 4 3 4 4 5 4 4 4 4 4 4 4 4 4 4 4 5 5 6
8 7 14 8 10 12 5 4 0 0 -2 7 -3 -1 3 4 9 7 2 14 8 7 6 5 5 5 5 7 6 5 4 4 4 4 6 5 5 5 5 5 4 4 4 4 4 4 4 4 5
6 6 9 8 9 8 13 17 -1 -8 1 -2 -2 -10 3 -6 4 11 7 7 14 9 9 6 5 6 7 6 7 6 4 4 4 3 6 6 5 5 5 4 4 4 4 5 4 4 5 4 4
6 4 5 7 3 15 8 11 14 11 8 10 10 9 3 -1 2 2 12 7 8 10 14 7 5 5 6 8 8 6 5 4 4 3 5 5 5 5 4 4 3 3 3 4 4 4 4 4 4
5 2 8 3 7 7 11 7 13 7 8 7 13 7 1 -0 -4 2 3 10 -0 12 8 15 10 7 7 8 8 8 6 5 4 4 4 5 4 4 3 3 3 4 4 5 6 5 5 4 4
5 9 3 2 -2 -3 6 6 9 6 11 7 4 16 -2 5 -1 3 5 4 3 7 7 5 11 11 7 8 8 7 7 6 6 5 4 4 4 4 4 3 3 3 3 7 5 6 6 6 5
7 6 3 4 4 -1 1 6 10 9 9 7 10 9 7 1 4 4 6 3 6 -1 6 8 7 9 7 6 8 7 6 6 6 6 5 5 5 4 4 4 4 3 4 6 5 2 7 10 9
8 7 10 3 3 -1 -1 3 2 1 4 4 2 4 0 3 5 7 5 4 9 5 6 -3 9 13 10 6 6 7 6 5 6 6 5 6 5 4 5 5 5 5 5 5 6 4 6 12 11
3 3 6 6 6 5 1 -3 8 4 6 6 5 4 4 6 7 5 8 0 5 13 5 4 17 11 11 8 7 7 7 6 9 7 7 6 6 6 5 5 7 6 7 6 6 6 7 11 9
0 4 5 7 8 6 6 -3 7 2 1 4 3 7 11 4 2 9 8 1 0 2 6 6 9 14 9 7 8 8 5 8 10 8 6 5 6 6 8 7 7 7 6 6 7 6 7 10 11
5 5 3 3 2 6 9 10 4 -5 3 -0 1 -0 -1 7 7 1 11 5 6 -1 -4 2 2 7 20 6 8 8 6 6 8 5 3 4 6 5 5 6 8 8 6 5 6 7 7 12 9
3 12 10 0 14 12 7 8 7 7 -0 6 9 9 -3 6 6 8 1 3 8 9 -0 -2 -1 1 6 18 9 7 6 5 7 7 5 3 3 4 4 4 7 8 7 7 6 8 7 14 5
13 1 6 7 2 6 1 13 1 7 5 11 21 13 8 0 6 10 7 3 4 2 7 5 1 -2 2 5 7 9 14 9 6 6 6 5 4 3 4 4 3 5 5 8 8 8 8 16 5
6 11 10 7 -0 15 10 3 17 -0 3 1 -3 1 7 11 8 -2 6 7 -1 12 14 4 4 4 1 3 1 0 1 2 1 1 2 7 7 8 6 4 5 3 4 4 11 9 8 13 8
5 -1 -2 -1 4 5 4 7 6 11 5 6 5 4 7 5 -0 -6 2 7 5 4 12 19 2 12 2 4 3 1 1 4 4 3 6 2 2 6 7 15 6 8 4 5 6 8 7 7 10
3 0 3 8 18 21 22 17 -1 8 14 7 8 7 12 11 16 16 5 3 7 8 1 17 4 9 14 6 -3 -1 0 0 1 2 3 4 5 0 8 14 14 2 6 5 6 8 10 5 6
2 7 12 1 1 -2 24 27 5 7 8 8 7 7 9 16 18 15 13 14 8 10 11 14 12 4 12 15 8 3 -1 1 4 3 4 5 10 2 1 0 4 7 8 7 8 6 11 6 5
25 23 23 23 18 -4 -3 2 -7 5 6 0 10 22 17 6 6 8 13 10 11 11 10 11 20 3 5 11 11 11 6 0 -3 -2 -3 -1 1 3 -2 -2 5 4 5 4 8 10 7 10 4
-14 -12 -1 -0 11 13 18 11 16 27 -18 -20 6 4 24 25 20 16 15 10 3 12 12 11 11 20 23 10 0 8 8 11 10 9 9 8 9 10 7 7 4 6 1 6 1 15 17 6 -7
22 24 22 25 15 29 10 -14 21 19 35 20 28 15 17 -1 7 17 2 8 10 2 0 4 13 16 9 11 22 12 10 11 10 13 9 11 12 7 17 8 9 7 7 2 4 9 15 4 11
-3 -2 6 7 10 1 29 22 -24 -21 -46 -16 -5 19 27 20 13 -9 14 -2 -3 -2 3 -1 -1 -3 10 12 3 11 6 11 15 8 4 9 12 10 7 10 7 13 8 4 12 13 15 7 13
25 14 -22 13 5 9 12 9 4 13 -5 -23 -5 3 10 7 4 6 6 7 6 9 9 7 12 3 -1 1 12 12 5 6 3 8 6 3 1 6 12 12 13 15 12 6 6 4 2 19 6
25 18 30 -3 0 12 -2 0 -2 5 17 37 40 39 27 21 21 18 14 13 22 32 31 27 16 7 9 13 18 7 13 12 6 4 8 6 -2 1 18 9 4 15 6 12 9 3 -11 44 14
5 7 10 9 9 9 20 23 -17 -44 -33 6 18 34 22 9 10 4 1 -1 -4 -6 7 12 16 28 20 13 15 21 7 13 14 9 9 12 12 3 8 16 4 14 8 6 9 -5 -7 17 27
11 6 12 5 -2 2 8 13 2 11 16 5 4 -23 -6 7 0 0 7 11 6 13 11 2 -1 -3 20 23 15 14 15 9 15 10 14 13 16 9 10 20 12 17 11 2 12 -1 13 4 2
-7 4 8 -7 6 10 1 -3 34 24 1 -2 -5 1 -21 -6 5 3 8 9 15 3 10 5 14 6 -4 6 17 18 23 18 13 11 -0 16 10 11 10 7 15 13 6 5 11 6 10 15 9
Height
3167 3168 3171 3173 3178 3175 3175 3176 3174 3175 3177 3178 3180 3183 3185 3185 3184 3187 3183 3182 3182 3183 3184 3185 3186 3187 3188 3189 3190 3191 3191 3192 3194 3194 3195 3195 3195 3195 3194 3195 3195 3195 3195 3194 3194 3194 3194 3193 3193
3166 3167 3170 3172 3175 3174 3175 3175 3175 3176 3177 3179 3181 3184 3185 3185 3184 3183 3182 3181 3181 3184 3185 3185 3187 3188 3189 3189 3191 3192 3192 3194 3195 3196 3196 3196 3196 3196 3196 3197 3197 3197 3196 3196 3196 3195 3195 3195 3195
3166 3167 3170 3171 3171 3173 3174 3173 3175 3176 3178 3180 3183 3185 3186 3186 3185 3183 3181 3182 3181 3183 3185 3186 3187 3189 3189 3190 3192 3193 3194 3195 3196 3196 3197 3197 3198 3198 3198 3198 3197 3197 3197 3197 3197 3197 3197 3197 3196
3166 3168 3171 3171 3170 3171 3172 3172 3175 3176 3177 3180 3182 3185 3186 3185 3184 3183 3181 3182 3182 3184 3185 3186 3187 3189 3189 3190 3192 3193 3195 3196 3196 3197 3198 3198 3199 3199 3198 3198 3198 3198 3197 3197 3197 3197 3197 3198 3197
3166 3167 3169 3170 3171 3171 3171 3172 3174 3176 3177 3179 3182 3184 3185 3185 3184 3183 3182 3182 3183 3184 3185 3186 3187 3188 3190 3190 3192 3193 3194 3196 3196 3197 3198 3198 3198 3199 3199 3199 3198 3198 3197 3197 3197 3197 3197 3197 3197
3165 3167 3168 3170 3170 3170 3171 3171 3174 3176 3178 3180 3181 3182 3184 3184 3184 3183 3183 3182 3183 3183 3185 3186 3187 3188 3189 3190 3191 3192 3194 3195 3196 3197 3198 3198 3198 3198 3199 3199 3199 3198 3198 3198 3197 3197 3197 3197 3197
3165 3166 3167 3168 3169 3170 3170 3172 3174 3176 3178 3179 3181 3182 3184 3184 3183 3183 3182 3182 3182 3183 3185 3185 3186 3187 3188 3190 3191 3192 3193 3194 3195 3196 3197 3197 3198 3198 3198 3198 3198 3198 3198 3198 3197 3197 3196 3196 3196
3164 3166 3167 3168 3168 3169 3169 3170 3172 3174 3176 3178 3180 3181 3182 3183 3183 3183 3182 3181 3182 3183 3184 3185 3185 3186 3187 3189 3190 3191 3193 3193 3194 3195 3196 3196 3197 3197 3198 3198 3198 3198 3198 3197 3197 3196 3195 3195 3195
3164 3166 3166 3168 3168 3169 3169 3169 3170 3172 3174 3175 3178 3179 3180 3181 3182 3182 3182 3182 3182 3182 3183 3184 3184 3184 3186 3188 3189 3190 3191 3192 3193 3194 3194 3195 3195 3196 3197 3197 3197 3197 3197 3196 3195 3194 3194 3193 3193
3162 3164 3165 3167 3167 3168 3168 3169 3169 3172 3173 3175 3176 3178 3180 3180 3180 3181 3181 3181 3182 3182 3182 3182 3182 3183 3183 3185 3187 3188 3189 3190 3191 3192 3193 3193 3194 3194 3195 3195 3195 3195 3195 3194 3193 3193 3192 3191 3190
3159 3162 3164 3166 3167 3168 3168 3169 3168 3169 3172 3174 3176 3177 3178 3179 3179 3180 3180 3180 3181 3181 3181 3181 3181 3181 3182 3183 3184 3185 3187 3188 3189 3190 3191 3192 3192 3192 3192 3193 3193 3193 3192 3192 3192 3191 3190 3189 3188
3157 3158 3162 3163 3165 3166 3168 3168 3168 3168 3170 3171 3174 3175 3176 3177 3178 3178 3178 3179 3179 3179 3180 3180 3179 3180 3180 3181 3182 3183 3184 3185 3186 3187 3188 3189 3190 3190 3190 3190 3190 3190 3190 3189 3188 3188 3187 3186 3186
3154 3156 3158 3160 3163 3163 3165 3167 3168 3168 3168 3170 3171 3173 3174 3175 3176 3177 3176 3176 3177 3178 3178 3178 3177 3178 3179 3180 3180 3180 3181 3182 3183 3183 3184 3185 3186 3187 3187 3187 3187 3186 3186 3185 3184 3184 3183 3183 3182
3150 3152 3154 3158 3160 3161 3161 3164 3165 3168 3168 3169 3169 3170 3172 3172 3173 3173 3174 3175 3175 3175 3176 3175 3175 3176 3176 3177 3178 3178 3179 3180 3180 3181 3181 3182 3183 3183 3183 3183 3183 3182 3182 3182 3181 3180 3180 3179 3179
3146 3148 3149 3153 3157 3158 3159 3159 3161 3164 3164 3165 3165 3166 3167 3168 3168 3170 3171 3172 3172 3173 3173 3173 3173 3172 3172 3173 3174 3175 3175 3176 3177 3177 3178 3179 3180 3180 3179 3179 3178 3178 3178 3177 3177 3177 3176 3175 3175
3142 3144 3145 3148 3152 3155 3155 3153 3158 3158 3158 3160 3161 3162 3163 3164 3165 3166 3166 3167 3168 3168 3169 3170 3170 3170 3169 3169 3169 3170 3171 3172 3173 3174 3174 3175 3175 3176 3176 3175 3175 3174 3173 3173 3172 3172 3172 3171 3171
3138 3140 3141 3144 3147 3150 3150 3147 3151 3151 3151 3152 3154 3157 3159 3159 3160 3161 3161 3162 3162 3163 3163 3163 3164 3164 3165 3165 3165 3165 3167 3168 3169 3169 3170 3171 3171 3171 3171 3171 3170 3169 3169 3168 3167 3167 3168 3167 3166
3136 3136 3136 3139 3144 3143 3143 3140 3144 3146 3145 3145 3148 3151 3153 3154 3156 3155 3156 3157 3157 3156 3156 3156 3157 3157 3158 3159 3160 3160 3161 3162 3163 3165 3165 3166 3166 3166 3166 3166 3166 3164 3163 3163 3163 3162 3162 3162 3161
3131 3131 3132 3133 3137 3136 3135 3132 3135 3139 3138 3140 3142 3143 3145 3148 3151 3151 3150 3149 3148 3148 3147 3148 3148 3150 3151 3152 3153 3154 3155 3157 3158 3158 3160 3160 3160 3160 3160 3160 3160 3159 3158 3158 3157 3156 3156 3156 3156
3125 3126 3127 3130 3131 3130 3129 3122 3126 3130 3132 3134 3134 3136 3136 3138 3141 3143 3141 3139 3139 3139 3139 3139 3140 3140 3142 3144 3146 3147 3148 3149 3151 3151 3152 3153 3153 3153 3154 3154 3154 3153 3152 3152 3151 3151 3150 3151 3150
3118 3120 3122 3126 3126 3126 3124 3115 3117 3120 3123 3127 3127 3127 3129 3131 3131 3131 3129 3129 3128 3128 3129 3129 3130 3131 3131 3133 3135 3137 3139 3140 3141 3142 3143 3144 3145 3146 3147 3147 3147 3147 3146 3146 3145 3144 3144 3143 3143
3114 3115 3116 3120 3124 3122 3121 3109 3107 3113 3114 3117 3120 3121 3122 3121 3123 3123 3121 3121 3122 3121 3121 3120 3120 3120 3121 3122 3123 3125 3127 3129 3132 3133 3134 3135 3136 3137 3138 3138 3139 3140 3140 3139 3138 3138 3137 3137 3137
3111 3112 3114 3116 3117 3117 3116 3119 3090 3106 3107 3112 3115 3114 3113 3113 3113 3114 3114 3113 3114 3113 3112 3112 3112 3111 3111 3112 3114 3114 3116 3118 3119 3120 3121 3123 3125 3126 3128 3128 3129 3130 3130 3130 3130 3129 3129 3129 3129
3107 3108 3112 3114 3115 3111 3111 3114 3069 3102 3103 3104 3106 3104 3104 3105 3104 3105 3105 3104 3104 3104 3104 3103 3103 3103 3103 3102 3103 3104 3106 3109 3108 3109 3109 3111 3112 3113 3116 3118 3118 3120 3120 3120 3121 3119 3118 3118 3119
3105 3106 3110 3113 3112 3103 3104 3105 3081 3092 3096 3100 3099 3097 3097 3096 3096 3095 3096 3096 3095 3095 3095 3095 3095 3095 3094 3094 3093 3094 3094 3096 3097 3098 3098 3099 3100 3101 3103 3104 3106 3108 3110 3111 3112 3111 3109 3108 3109
3098 3103 3106 3104 3102 3101 3103 3091 3083 3089 3089 3091 3091 3091 3089 3089 3089 3088 3087 3086 3086 3085 3085 3085 3084 3083 3084 3084 3084 3084 3083 3084 3085 3087 3088 3088 3090 3092 3092 3092 3094 3097 3099 3101 3102 3100 3099 3097 3097
3096 3099 3102 3104 3103 3103 3095 3085 3081 3084 3085 3083 3084 3084 3084 3082 3081 3080 3079 3078 3078 3077 3075 3073 3072 3072 3071 3070 3071 3073 3073 3072 3073 3074 3076 3077 3079 3080 3081 3082 3083 3085 3088 3090 3092 3092 3093 3087 3085
3094 3098 3100 3102 3101 3096 3087 3083 3076 3078 3078 3078 3077 3077 3076 3075 3075 3074 3073 3071 3070 3069 3067 3065 3063 3061 3059 3058 3058 3057 3059 3061 3061 3061 3061 3062 3066 3067 3067 3069 3070 3073 3077 3079 3080 3081 3081 3079 3078
3094 3095 3096 3098 3096 3094 3088 3074 3073 3073 3073 3072 3072 3071 3071 3071 3070 3069 3067 3065 3063 3062 3060 3057 3055 3052 3049 3048 3046 3044 3044 3045 3046 3047 3048 3049 3051 3052 3053 3056 3055 3061 3065 3068 3070 3072 3072 3070 3069
3089 3092 3093 3093 3093 3090 3090 3067 3067 3069 3069 3067 3067 3067 3065 3063 3062 3060 3058 3056 3055 3053 3051 3048 3045 3042 3040 3036 3034 3032 3030 3031 3032 3033 3034 3035 3035 3037 3039 3040 3042 3048 3053 3057 3059 3061 3061 3061 3061